| time (UTC) | temp F | wind direction | speed MPH | gust MPH | rain 1hr in | rain 24hr in | rain mn in | humidity % | barometer mb |
| 20260902232448 | 92 | 151 | 0.0 | 0.0 | 0.00 | 0.00 | 0.00 | 71 | 1007.7 |
| 20260902231807 | 93 | 143 | 0.0 | 0.0 | 0.00 | 0.00 | 0.00 | 69 | 1007.7 |
| 20260902230636 | 94 | 124 | 0.0 | 0.0 | 0.00 | 0.00 | 0.00 | 67 | 1007.7 |
| 20260902225422 | 96 | 147 | 0.0 | 0.0 | 0.00 | 0.00 | 0.00 | 65 | 1007.7 |
| 20260902224832 | 96 | 156 | 0.0 | 0.0 | 0.00 | 0.00 | 0.00 | 65 | 1007.7 |
| 20260902224238 | 97 | 171 | 0.0 | 0.0 | 0.00 | 0.00 | 0.00 | 65 | 1007.7 |
| 20260902223649 | 97 | 148 | 0.0 | 0.0 | 0.00 | 0.00 | 0.00 | 64 | 1008.1 |
| 20260902223034 | 98 | 162 | 0.0 | 0.0 | 0.00 | 0.00 | 0.00 | 64 | 1008.1 |
| 20260902222413 | 97 | 165 | 0.0 | 1.0 | 0.00 | 0.00 | 0.00 | 65 | 1008.1 |
| 20260902221814 | 97 | 196 | 0.0 | 0.0 | 0.00 | 0.00 | 0.00 | 65 | 1007.7 |
| 20260902221219 | 97 | 139 | 0.0 | 0.0 | 0.00 | 0.00 | 0.00 | 65 | 1007.7 |
| 20260902220629 | 98 | 149 | 0.0 | 1.0 | 0.00 | 0.00 | 0.00 | 64 | 1008.1 |
| 20260902220047 | 98 | 182 | 1.0 | 1.0 | 0.00 | 0.00 | 0.00 | 64 | 1008.1 |
| 20260902215407 | 98 | 181 | 0.0 | 1.0 | 0.00 | 0.00 | 0.00 | 63 | 1007.7 |
| 20260902214848 | 98 | 168 | 1.0 | 1.0 | 0.00 | 0.00 | 0.00 | 64 | 1007.7 |
| 20260902214236 | 97 | 143 | 0.0 | 1.0 | 0.00 | 0.00 | 0.00 | 59 | 1008.1 |
| 20260902213633 | 97 | 285 | 2.0 | 2.0 | 0.00 | 0.00 | 0.00 | 56 | 1007.7 |
| 20260902213030 | 99 | 74 | 1.0 | 1.0 | 0.00 | 0.00 | 0.00 | 56 | 1008.1 |
| 20260902212428 | 98 | 318 | 1.0 | 1.0 | 0.00 | 0.00 | 0.00 | 58 | 1007.7 |
| 20260902211842 | 98 | 208 | 1.0 | 1.0 | 0.00 | 0.00 | 0.00 | 60 | 1007.7 |
| 20260902210614 | 98 | 143 | 1.0 | 1.0 | 0.00 | 0.00 | 0.00 | 55 | 1007.7 |
| 20260902210017 | 97 | 68 | 1.0 | 2.0 | 0.00 | 0.00 | 0.00 | 56 | 1008.1 |
| 20260902205407 | 99 | 314 | 1.0 | 2.0 | 0.00 | 0.00 | 0.00 | 56 | 1008.1 |
| 20260902204845 | 100 | 160 | 1.0 | 1.0 | 0.00 | 0.00 | 0.00 | 56 | 1008.4 |
| 20260902204243 | 98 | 157 | 1.0 | 2.0 | 0.00 | 0.00 | 0.00 | 55 | 1008.4 |
| 20260902203641 | 98 | 207 | 1.0 | 1.0 | 0.00 | 0.00 | 0.00 | 53 | 1008.4 |
| 20260902203013 | 97 | 14 | 1.0 | 1.0 | 0.00 | 0.00 | 0.00 | 55 | 1008.8 |
| 20260902202412 | 97 | 73 | 1.0 | 1.0 | 0.00 | 0.00 | 0.00 | 56 | 1008.4 |
| 20260902201809 | 97 | 272 | 2.0 | 2.0 | 0.00 | 0.00 | 0.00 | 58 | 1008.8 |
| 20260902201247 | 99 | 3 | 3.0 | 3.0 | 0.00 | 0.00 | 0.00 | 54 | 1008.8 |
| 20260902200642 | 98 | 123 | 1.0 | 1.0 | 0.00 | 0.00 | 0.00 | 54 | 1008.8 |
| 20260902194813 | 97 | 150 | 2.0 | 2.0 | 0.00 | 0.00 | 0.00 | 54 | 1009.1 |
| 20260902194231 | 98 | 189 | 2.0 | 2.0 | 0.00 | 0.00 | 0.00 | 58 | 1009.1 |
| 20260902193638 | 98 | 142 | 1.0 | 1.0 | 0.00 | 0.00 | 0.00 | 56 | 1009.1 |
| 20260902193024 | 98 | 341 | 2.0 | 2.0 | 0.00 | 0.00 | 0.00 | 56 | 1009.1 |
| 20260902192449 | 98 | 171 | 1.0 | 1.0 | 0.00 | 0.00 | 0.00 | 58 | 1009.4 |
| 20260902191835 | 97 | 259 | 1.0 | 1.0 | 0.00 | 0.00 | 0.00 | 55 | 1009.1 |
| 20260902190627 | 96 | 290 | 2.0 | 2.0 | 0.00 | 0.00 | 0.00 | 57 | 1009.1 |
| 20260902190016 | 97 | 229 | 1.0 | 1.0 | 0.00 | 0.00 | 0.00 | 58 | 1009.1 |
| 20260902185448 | 94 | 277 | 2.0 | 2.0 | 0.00 | 0.00 | 0.00 | 58 | 1009.1 |
| 20260902184841 | 96 | 24 | 2.0 | 3.0 | 0.00 | 0.00 | 0.00 | 59 | 1009.1 |
| 20260902183609 | 95 | 120 | 1.0 | 1.0 | 0.00 | 0.00 | 0.00 | 63 | 1009.4 |
| 20260902183035 | 95 | 328 | 2.0 | 2.0 | 0.00 | 0.00 | 0.00 | 59 | 1009.4 |
| 20260902182443 | 95 | 205 | 1.0 | 1.0 | 0.00 | 0.00 | 0.00 | 61 | 1009.4 |
| 20260902181247 | 94 | 15 | 1.0 | 1.0 | 0.00 | 0.00 | 0.00 | 59 | 1009.4 |
| 20260902180645 | 94 | 353 | 2.0 | 3.0 | 0.00 | 0.00 | 0.00 | 59 | 1009.4 |
| 20260902180012 | 94 | 237 | 4.0 | 4.0 | 0.00 | 0.00 | 0.00 | 60 | 1009.4 |
| 20260902175423 | 94 | 347 | 3.0 | 4.0 | 0.00 | 0.00 | 0.00 | 63 | 1009.4 |
| 20260902174813 | 94 | 55 | 2.0 | 3.0 | 0.00 | 0.00 | 0.00 | 63 | 1009.8 |
| 20260902174234 | 94 | 328 | 2.0 | 3.0 | 0.00 | 0.00 | 0.00 | 63 | 1009.8 |
| 20260902173634 | 94 | 37 | 1.0 | 2.0 | 0.00 | 0.00 | 0.00 | 64 | 1009.8 |
| 20260902173028 | 93 | 63 | 2.0 | 3.0 | 0.00 | 0.00 | 0.00 | 66 | 1010.1 |
| 20260902172444 | 93 | 244 | 2.0 | 3.0 | 0.00 | 0.00 | 0.00 | 65 | 1010.4 |
| 20260902171817 | 93 | 349 | 2.0 | 2.0 | 0.00 | 0.00 | 0.00 | 65 | 1010.4 |
| 20260902171206 | 92 | 259 | 2.0 | 3.0 | 0.00 | 0.00 | 0.00 | 65 | 1010.4 |
| 20260902170647 | 93 | 73 | 1.0 | 2.0 | 0.00 | 0.00 | 0.00 | 64 | 1010.4 |
| 20260902170024 | 93 | 317 | 3.0 | 4.0 | 0.00 | 0.00 | 0.00 | 67 | 1010.4 |
| 20260902165424 | 93 | 209 | 1.0 | 1.0 | 0.00 | 0.00 | 0.00 | 68 | 1010.4 |
| 20260902164207 | 92 | 320 | 2.0 | 2.0 | 0.00 | 0.00 | 0.00 | 67 | 1010.8 |
| 20260902163612 | 93 | 195 | 1.0 | 2.0 | 0.00 | 0.00 | 0.00 | 70 | 1010.8 |
| 20260902163010 | 92 | 151 | 0.0 | 1.0 | 0.00 | 0.00 | 0.00 | 67 | 1010.8 |
| 20260902162424 | 92 | 270 | 0.0 | 1.0 | 0.00 | 0.00 | 0.00 | 71 | 1011.1 |
| 20260902161822 | 92 | 171 | 0.0 | 1.0 | 0.00 | 0.00 | 0.00 | 69 | 1011.1 |
| 20260902161215 | 91 | 173 | 0.0 | 1.0 | 0.00 | 0.00 | 0.00 | 72 | 1011.1 |
| 20260902160043 | 91 | 255 | 2.0 | 3.0 | 0.00 | 0.00 | 0.00 | 72 | 1011.1 |
| 20260902155438 | 90 | 295 | 2.0 | 3.0 | 0.00 | 0.00 | 0.00 | 74 | 1011.1 |
| 20260902154817 | 90 | 282 | 1.0 | 2.0 | 0.00 | 0.00 | 0.00 | 72 | 1011.1 |
| 20260902154230 | 90 | 178 | 2.0 | 2.0 | 0.00 | 0.00 | 0.00 | 76 | 1011.5 |
| 20260902153033 | 89 | 135 | 1.0 | 2.0 | 0.00 | 0.00 | 0.00 | 74 | 1011.5 |
| 20260902152412 | 88 | 88 | 1.0 | 1.0 | 0.00 | 0.00 | 0.00 | 75 | 1011.1 |
| 20260902151838 | 87 | 181 | 1.0 | 1.0 | 0.00 | 0.00 | 0.00 | 78 | 1011.1 |
| 20260902150029 | 85 | 177 | 1.0 | 1.0 | 0.00 | 0.00 | 0.00 | 84 | 1011.1 |
| 20260902145445 | 84 | 178 | 1.0 | 1.0 | 0.00 | 0.00 | 0.00 | 87 | 1011.1 |
| 20260902144233 | 83 | 157 | 1.0 | 1.0 | 0.00 | 0.00 | 0.00 | 91 | 1011.1 |
| 20260902143627 | 82 | 149 | 0.0 | 0.0 | 0.00 | 0.00 | 0.00 | 93 | 1010.8 |
| 20260902143043 | 81 | 135 | 0.0 | 0.0 | 0.00 | 0.00 | 0.00 | 92 | 1010.8 |
| 20260902142438 | 81 | 157 | 0.0 | 1.0 | 0.00 | 0.00 | 0.00 | 94 | 1011.1 |
| 20260902141822 | 81 | 148 | 0.0 | 0.0 | 0.00 | 0.00 | 0.00 | 96 | 1010.8 |
| 20260902141225 | 80 | 153 | 0.0 | 0.0 | 0.00 | 0.00 | 0.00 | 96 | 1011.1 |
| 20260902140643 | 79 | 152 | 0.0 | 0.0 | 0.00 | 0.00 | 0.00 | 97 | 1011.1 |
| 20260902140014 | 78 | 150 | 0.0 | 0.0 | 0.00 | 0.00 | 0.00 | 98 | 1011.1 |
| 20260902135430 | 78 | 154 | 0.0 | 0.0 | 0.00 | 0.00 | 0.00 | 99 | 1011.1 |
| 20260902134845 | 77 | 160 | 0.0 | 1.0 | 0.00 | 0.00 | 0.00 | 99 | 1010.8 |
| 20260902134207 | 76 | 144 | 0.0 | 0.0 | 0.00 | 0.00 | 0.00 | 99 | 1011.1 |
| 20260902133612 | 76 | 149 | 0.0 | 0.0 | 0.00 | 0.00 | 0.00 | 99 | 1011.1 |
| 20260902133016 | 75 | 153 | 1.0 | 1.0 | 0.00 | 0.00 | 0.00 | 99 | 1010.8 |
| 20260902132406 | 75 | 149 | 0.0 | 0.0 | 0.00 | 0.00 | 0.00 | 99 | 1011.1 |
| 20260902131229 | 74 | 152 | 0.0 | 0.0 | 0.00 | 0.00 | 0.00 | 99 | 1010.8 |
| 20260902130010 | 73 | 151 | 0.0 | 0.0 | 0.00 | 0.00 | 0.00 | 99 | 1010.8 |
| 20260902125429 | 73 | 152 | 0.0 | 0.0 | 0.00 | 0.00 | 0.00 | 99 | 1010.8 |
| 20260902123634 | 72 | 149 | 0.0 | 0.0 | 0.00 | 0.00 | 0.00 | 99 | 1010.8 |
| 20260902122449 | 72 | 149 | 0.0 | 0.0 | 0.00 | 0.00 | 0.00 | 99 | 1010.8 |
| 20260902121822 | 72 | 149 | 0.0 | 0.0 | 0.00 | 0.00 | 0.00 | 99 | 1010.8 |
| 20260902121239 | 72 | 149 | 0.0 | 0.0 | 0.00 | 0.00 | 0.00 | 99 | 1010.4 |
| 20260902120627 | 71 | 149 | 0.0 | 0.0 | 0.00 | 0.00 | 0.00 | 99 | 1010.8 |
| 20260902120044 | 71 | 149 | 0.0 | 0.0 | 0.00 | 0.00 | 0.00 | 99 | 1010.4 |
| 20260902115429 | 71 | 149 | 0.0 | 0.0 | 0.00 | 0.00 | 0.00 | 99 | 1010.8 |
| 20260902114825 | 71 | 153 | 0.0 | 0.0 | 0.00 | 0.00 | 0.00 | 99 | 1010.4 |
| 20260902114231 | 71 | 154 | 0.0 | 0.0 | 0.00 | 0.00 | 0.00 | 99 | 1010.4 |
| 20260902113642 | 71 | 155 | 0.0 | 0.0 | 0.00 | 0.00 | 0.00 | 99 | 1010.4 |
| 20260902113050 | 71 | 155 | 0.0 | 0.0 | 0.00 | 0.00 | 0.00 | 99 | 1010.4 |
| 20260902112431 | 71 | 155 | 0.0 | 0.0 | 0.00 | 0.00 | 0.00 | 99 | 1010.4 |
| 20260902111830 | 71 | 155 | 0.0 | 0.0 | 0.00 | 0.00 | 0.00 | 99 | 1010.4 |
| 20260902111235 | 71 | 156 | 0.0 | 0.0 | 0.00 | 0.00 | 0.00 | 99 | 1010.4 |
| 20260902110637 | 71 | 155 | 0.0 | 0.0 | 0.00 | 0.00 | 0.00 | 99 | 1010.4 |
| 20260902110025 | 71 | 155 | 0.0 | 0.0 | 0.00 | 0.00 | 0.00 | 99 | 1010.4 |
| 20260902105423 | 71 | 155 | 0.0 | 0.0 | 0.00 | 0.00 | 0.00 | 99 | 1010.4 |
| 20260902104809 | 71 | 155 | 0.0 | 0.0 | 0.00 | 0.00 | 0.00 | 99 | 1010.4 |
| 20260902103049 | 71 | 154 | 0.0 | 0.0 | 0.00 | 0.00 | 0.00 | 99 | 1010.4 |
| 20260902102410 | 71 | 154 | 0.0 | 0.0 | 0.00 | 0.00 | 0.00 | 99 | 1010.4 |
| 20260902101226 | 71 | 154 | 0.0 | 0.0 | 0.00 | 0.00 | 0.00 | 99 | 1010.1 |
| 20260902100647 | 71 | 154 | 0.0 | 0.0 | 0.00 | 0.00 | 0.00 | 99 | 1010.1 |
| 20260902100047 | 71 | 154 | 0.0 | 0.0 | 0.00 | 0.00 | 0.00 | 99 | 1010.1 |
| 20260902095431 | 71 | 153 | 0.0 | 0.0 | 0.00 | 0.00 | 0.00 | 99 | 1010.1 |
| 20260902094845 | 71 | 152 | 0.0 | 0.0 | 0.00 | 0.00 | 0.00 | 99 | 1010.1 |
| 20260902094218 | 71 | 151 | 0.0 | 0.0 | 0.00 | 0.00 | 0.00 | 99 | 1010.1 |
| 20260902093642 | 71 | 156 | 0.0 | 0.0 | 0.00 | 0.00 | 0.00 | 99 | 1010.1 |
| 20260902093025 | 71 | 156 | 0.0 | 0.0 | 0.00 | 0.00 | 0.00 | 99 | 1010.1 |
| 20260902092418 | 72 | 156 | 0.0 | 0.0 | 0.00 | 0.00 | 0.00 | 99 | 1010.1 |
| 20260902091820 | 72 | 156 | 0.0 | 0.0 | 0.00 | 0.00 | 0.00 | 99 | 1010.1 |
| 20260902091216 | 72 | 156 | 0.0 | 0.0 | 0.00 | 0.00 | 0.00 | 99 | 1010.1 |
| 20260902090613 | 72 | 156 | 0.0 | 0.0 | 0.00 | 0.00 | 0.00 | 99 | 1010.1 |
| 20260902090043 | 72 | 156 | 0.0 | 0.0 | 0.00 | 0.00 | 0.00 | 99 | 1010.4 |
| 20260902085434 | 72 | 156 | 0.0 | 0.0 | 0.00 | 0.00 | 0.00 | 99 | 1010.1 |
| 20260902084839 | 72 | 156 | 0.0 | 0.0 | 0.00 | 0.00 | 0.00 | 99 | 1010.1 |
| 20260902084212 | 72 | 156 | 0.0 | 0.0 | 0.00 | 0.00 | 0.00 | 99 | 1010.1 |
| 20260902083624 | 72 | 156 | 0.0 | 0.0 | 0.00 | 0.00 | 0.00 | 99 | 1010.1 |
| 20260902083037 | 72 | 156 | 0.0 | 0.0 | 0.00 | 0.00 | 0.00 | 99 | 1009.8 |
| 20260902082429 | 72 | 155 | 0.0 | 0.0 | 0.00 | 0.00 | 0.00 | 99 | 1009.8 |
| 20260902081822 | 72 | 155 | 0.0 | 0.0 | 0.00 | 0.00 | 0.00 | 99 | 1009.4 |
| 20260902080610 | 72 | 156 | 0.0 | 0.0 | 0.00 | 0.00 | 0.00 | 99 | 1009.8 |
| 20260902080014 | 72 | 155 | 0.0 | 0.0 | 0.00 | 0.00 | 0.00 | 99 | 1009.4 |
| 20260902074229 | 72 | 156 | 0.0 | 0.0 | 0.00 | 0.00 | 0.00 | 99 | 1009.4 |
| 20260902073616 | 72 | 151 | 0.0 | 0.0 | 0.00 | 0.00 | 0.00 | 99 | 1009.4 |
| 20260902073027 | 72 | 148 | 0.0 | 0.0 | 0.00 | 0.00 | 0.00 | 99 | 1009.4 |
| 20260902072443 | 72 | 148 | 0.0 | 0.0 | 0.00 | 0.00 | 0.00 | 99 | 1009.4 |
| 20260902071828 | 72 | 147 | 0.0 | 0.0 | 0.00 | 0.00 | 0.00 | 99 | 1009.4 |
| 20260902071230 | 72 | 145 | 0.0 | 0.0 | 0.00 | 0.00 | 0.00 | 99 | 1009.1 |
| 20260902070644 | 72 | 153 | 0.0 | 0.0 | 0.00 | 0.00 | 0.00 | 99 | 1009.4 |
| 20260902070017 | 73 | 149 | 0.0 | 0.0 | 0.00 | 0.00 | 0.00 | 99 | 1009.4 |
| 20260902065448 | 73 | 149 | 0.0 | 0.0 | 0.00 | 0.00 | 0.00 | 99 | 1009.4 |
| 20260902064838 | 73 | 147 | 0.0 | 0.0 | 0.00 | 0.00 | 0.00 | 99 | 1009.4 |
| 20260902064248 | 73 | 148 | 0.0 | 0.0 | 0.00 | 0.00 | 0.00 | 99 | 1009.4 |
| 20260902063632 | 73 | 154 | 0.0 | 0.0 | 0.00 | 0.00 | 0.00 | 99 | 1009.8 |
| 20260902063027 | 73 | 153 | 0.0 | 0.0 | 0.00 | 0.00 | 0.00 | 99 | 1009.8 |
| 20260902062406 | 73 | 153 | 0.0 | 0.0 | 0.00 | 0.00 | 0.00 | 99 | 1009.4 |
| 20260902061837 | 73 | 153 | 0.0 | 0.0 | 0.00 | 0.00 | 0.00 | 99 | 1009.8 |
| 20260902061209 | 73 | 153 | 0.0 | 0.0 | 0.00 | 0.00 | 0.00 | 99 | 1009.4 |
| 20260902060040 | 73 | 153 | 0.0 | 0.0 | 0.00 | 0.00 | 0.00 | 99 | 1009.4 |
| 20260902055429 | 73 | 153 | 0.0 | 0.0 | 0.00 | 0.00 | 0.00 | 99 | 1009.8 |
| 20260902054236 | 74 | 152 | 0.0 | 0.0 | 0.00 | 0.00 | 0.00 | 99 | 1009.4 |
| 20260902053613 | 74 | 149 | 0.0 | 0.0 | 0.00 | 0.00 | 0.00 | 99 | 1009.4 |
| 20260902053036 | 74 | 149 | 0.0 | 0.0 | 0.00 | 0.00 | 0.00 | 99 | 1009.4 |
| 20260902051834 | 74 | 150 | 0.0 | 0.0 | 0.00 | 0.00 | 0.00 | 99 | 1009.4 |
| 20260902051227 | 74 | 144 | 0.0 | 0.0 | 0.00 | 0.00 | 0.00 | 99 | 1009.4 |
| 20260902050618 | 74 | 143 | 0.0 | 0.0 | 0.00 | 0.00 | 0.00 | 99 | 1009.4 |
| 20260902050045 | 74 | 139 | 0.0 | 0.0 | 0.00 | 0.00 | 0.00 | 99 | 1009.4 |
| 20260902045448 | 74 | 144 | 0.0 | 0.0 | 0.00 | 0.00 | 0.00 | 99 | 1009.1 |
| 20260902044823 | 74 | 143 | 0.0 | 0.0 | 0.00 | 0.00 | 0.00 | 99 | 1009.4 |
| 20260902044213 | 75 | 144 | 0.0 | 0.0 | 0.00 | 0.00 | 0.00 | 99 | 1009.1 |
| 20260902043043 | 75 | 142 | 0.0 | 0.0 | 0.00 | 0.00 | 0.00 | 99 | 1009.1 |
| 20260902042435 | 75 | 139 | 0.0 | 0.0 | 0.00 | 0.00 | 0.00 | 99 | 1009.1 |
| 20260902041818 | 75 | 134 | 0.0 | 0.0 | 0.00 | 0.00 | 0.00 | 99 | 1008.8 |
| 20260902041251 | 75 | 139 | 0.0 | 0.0 | 0.00 | 0.00 | 0.00 | 99 | 1008.8 |
| 20260902040647 | 75 | 139 | 0.0 | 0.0 | 0.00 | 0.00 | 0.00 | 99 | 1009.1 |
| 20260902040038 | 75 | 137 | 0.0 | 0.0 | 0.00 | 0.00 | 0.00 | 99 | 1009.1 |
| 20260902035430 | 75 | 140 | 0.0 | 0.0 | 0.00 | 0.00 | 0.00 | 99 | 1009.1 |
| 20260902034242 | 76 | 138 | 0.0 | 0.0 | 0.00 | 0.00 | 0.00 | 99 | 1009.1 |
| 20260902033647 | 76 | 139 | 0.0 | 0.0 | 0.00 | 0.00 | 0.00 | 99 | 1009.1 |
| 20260902033012 | 76 | 138 | 0.0 | 0.0 | 0.00 | 0.00 | 0.00 | 99 | 1009.1 |
| 20260902032448 | 76 | 132 | 0.0 | 0.0 | 0.00 | 0.00 | 0.00 | 99 | 1009.1 |
| 20260902031839 | 76 | 101 | 0.0 | 0.0 | 0.00 | 0.00 | 0.00 | 99 | 1009.1 |
| 20260902031230 | 76 | 139 | 0.0 | 0.0 | 0.00 | 0.00 | 0.00 | 99 | 1009.1 |
| 20260902030631 | 76 | 146 | 0.0 | 0.0 | 0.00 | 0.00 | 0.00 | 99 | 1009.1 |
| 20260902030014 | 76 | 148 | 0.0 | 0.0 | 0.00 | 0.00 | 0.00 | 99 | 1009.1 |
| 20260902024214 | 76 | 148 | 0.0 | 0.0 | 0.00 | 0.00 | 0.00 | 99 | 1009.4 |
| 20260902023023 | 76 | 148 | 0.0 | 0.0 | 0.00 | 0.00 | 0.00 | 98 | 1009.1 |
| 20260902021816 | 77 | 148 | 0.0 | 0.0 | 0.00 | 0.00 | 0.00 | 98 | 1009.1 |
| 20260902021246 | 77 | 148 | 0.0 | 0.0 | 0.00 | 0.00 | 0.00 | 98 | 1009.1 |
| 20260902020623 | 77 | 148 | 0.0 | 0.0 | 0.00 | 0.00 | 0.00 | 98 | 1009.1 |
| 20260902020023 | 77 | 148 | 0.0 | 0.0 | 0.00 | 0.00 | 0.00 | 98 | 1009.1 |
| 20260902015432 | 77 | 148 | 0.0 | 0.0 | 0.00 | 0.00 | 0.00 | 97 | 1009.1 |
| 20260902014811 | 77 | 148 | 0.0 | 0.0 | 0.00 | 0.00 | 0.00 | 97 | 1009.1 |
| 20260902014231 | 78 | 148 | 0.0 | 0.0 | 0.00 | 0.00 | 0.00 | 97 | 1008.8 |
| 20260902013647 | 78 | 147 | 0.0 | 0.0 | 0.00 | 0.00 | 0.00 | 96 | 1009.1 |
| 20260902013044 | 78 | 132 | 0.0 | 0.0 | 0.00 | 0.00 | 0.00 | 96 | 1008.8 |
| 20260902012426 | 78 | 132 | 0.0 | 0.0 | 0.00 | 0.00 | 0.00 | 96 | 1008.8 |
| 20260902011824 | 78 | 129 | 0.0 | 0.0 | 0.00 | 0.00 | 0.00 | 96 | 1008.8 |
| 20260902011249 | 79 | 146 | 0.0 | 0.0 | 0.00 | 0.00 | 0.00 | 95 | 1008.8 |
| 20260902010627 | 79 | 151 | 0.0 | 0.0 | 0.00 | 0.00 | 0.00 | 96 | 1008.8 |
| 20260902004807 | 79 | 142 | 0.0 | 0.0 | 0.00 | 0.00 | 0.00 | 94 | 1008.8 |
| 20260902004231 | 80 | 148 | 0.0 | 0.0 | 0.00 | 0.00 | 0.00 | 93 | 1008.8 |
| 20260902003648 | 80 | 139 | 0.0 | 0.0 | 0.00 | 0.00 | 0.00 | 92 | 1008.8 |
| 20260902003026 | 80 | 149 | 0.0 | 0.0 | 0.00 | 0.00 | 0.00 | 92 | 1008.8 |
| 20260902001832 | 81 | 144 | 0.0 | 0.0 | 0.00 | 0.00 | 0.00 | 90 | 1008.8 |
| 20260902001250 | 82 | 142 | 0.0 | 0.0 | 0.00 | 0.00 | 0.00 | 89 | 1008.4 |
| 20260902000646 | 82 | 147 | 0.0 | 0.0 | 0.00 | 0.00 | 0.00 | 88 | 1008.4 |
| 20260902000008 | 83 | 142 | 0.0 | 0.0 | 0.00 | 0.00 | 0.00 | 86 | 1008.4 |
| 20260901235425 | 84 | 148 | 0.0 | 0.0 | 0.00 | 0.00 | 0.00 | 84 | 1008.8 |
| 20260901234817 | 86 | 146 | 0.0 | 0.0 | 0.00 | 0.00 | 0.00 | 81 | 1008.4 |
| 20260901234248 | 87 | 147 | 0.0 | 0.0 | 0.00 | 0.00 | 0.00 | 78 | 1008.8 |
| 20260901233618 | 88 | 148 | 0.0 | 0.0 | 0.00 | 0.00 | 0.00 | 76 | 1008.8 |
| 20260901233023 | 90 | 148 | 0.0 | 0.0 | 0.00 | 0.00 | 0.00 | 73 | 1008.8 |